Temperature
27 25 24 23 23 23 22 21 21 20 20 20 20 20 20 20 20 20 19 18 18 17 17 16 16 16 16 16 16 16 16 16 16 16 16 17 17 18 18 18 18 18 18
24 23 22 23 23 22 21 21 21 20 21 21 21 21 21 20 20 20 19 19 17 17 17 16 16 15 15 15 15 15 15 15 15 15 15 16 17 18 19 19 19 19 18
19 20 22 23 22 22 21 21 21 21 21 21 21 21 20 20 20 19 19 19 18 17 17 16 16 15 15 15 15 15 15 14 14 15 15 15 16 17 18 18 19 18 18
16 17 19 21 21 21 21 21 20 21 21 21 21 20 20 20 20 20 20 19 18 18 17 17 16 16 16 16 15 14 15 14 14 14 14 15 15 15 16 17 18 18 18
16 17 18 19 19 20 20 20 19 19 20 20 20 20 20 20 20 20 19 19 19 18 17 17 16 16 16 15 15 15 15 15 14 14 14 14 15 15 15 16 16 17 17
16 16 16 17 18 18 18 18 17 17 18 18 18 18 18 19 19 19 19 19 18 18 18 17 16 16 16 15 15 15 14 14 14 14 14 14 14 14 15 15 16 16 17
17 16 16 16 16 16 16 15 15 16 16 16 16 17 17 17 17 17 18 18 18 18 18 17 17 17 16 16 16 14 14 14 14 14 14 14 14 14 14 15 15 16 17
17 16 16 15 15 15 14 14 14 14 15 15 15 15 15 15 15 16 16 17 17 17 17 17 17 17 16 16 15 14 14 13 14 14 14 14 14 14 14 14 15 15 16
17 17 16 16 15 15 14 14 14 14 14 14 15 14 15 15 15 15 15 15 15 16 16 16 15 15 16 15 15 15 14 14 14 14 14 14 14 14 14 14 14 15 15
18 17 16 16 15 15 14 14 14 14 14 14 14 14 14 14 15 15 15 15 15 15 15 14 14 14 15 15 14 14 14 14 14 14 14 14 14 14 14 14 14 15 15
17 16 16 15 15 15 14 14 13 13 13 13 13 14 13 14 14 14 14 15 15 14 14 14 14 14 14 14 14 14 14 14 14 14 14 14 14 14 14 14 14 14 15
15 15 15 14 14 13 13 13 12 12 12 12 12 12 12 12 12 12 13 13 13 14 14 13 13 13 13 14 14 14 14 14 14 14 14 13 13 14 14 14 14 14 14
15 14 13 13 12 12 12 12 12 11 11 11 11 11 11 11 11 11 11 12 12 12 13 13 13 13 13 13 13 14 13 14 14 14 14 13 13 14 14 14 14 14 14
15 14 13 13 13 12 12 12 12 12 12 11 11 11 11 11 11 11 11 11 11 11 11 12 12 12 12 13 13 13 13 13 14 14 14 13 13 13 14 14 13 13 13
16 15 14 14 13 13 13 13 12 12 12 12 11 11 11 11 11 11 10 10 10 10 10 10 11 11 11 12 12 13 13 13 14 14 13 13 13 13 14 13 13 12 13
16 15 15 14 14 13 13 12 12 12 12 11 11 11 11 11 11 11 10 10 10 10 10 10 10 10 11 11 12 12 12 13 13 13 13 13 13 13 13 13 12 12 12
15 14 14 14 13 13 12 12 12 11 11 11 10 10 10 10 11 11 11 11 10 10 10 10 10 10 10 11 11 12 12 13 13 13 13 13 13 13 13 12 12 12 12
14 13 13 13 12 12 12 12 11 11 10 10 9 9 9 9 9 10 10 10 10 10 10 10 10 10 10 10 10 11 12 12 12 13 13 13 13 12 12 12 12 12 11
13 13 12 12 12 12 11 11 11 10 10 9 9 8 8 8 8 8 9 9 9 10 10 10 10 10 10 10 10 11 11 11 12 12 12 12 12 12 12 12 12 12 11
13 12 12 12 11 11 11 10 10 10 9 9 8 7 7 7 7 7 8 8 9 9 9 10 10 10 9 9 10 10 10 10 11 11 12 12 12 12 12 12 12 12 11
12 12 12 11 11 11 10 10 9 9 8 8 7 6 6 6 6 7 7 7 8 8 9 9 9 9 9 9 10 10 10 10 10 10 11 12 12 12 12 12 12 12 12
12 12 11 11 10 10 9 8 8 7 7 6 6 5 5 5 6 6 6 7 7 8 8 8 9 9 9 9 9 9 9 10 10 10 10 11 12 12 11 11 11 12 12
11 11 10 10 9 8 7 6 6 5 5 4 4 4 5 5 5 5 6 6 7 7 7 8 9 9 9 9 9 9 9 9 10 9 9 10 11 11 11 11 11 11 11
10 9 8 8 7 6 5 4 4 3 3 3 3 4 4 4 5 5 5 6 6 7 7 8 8 9 9 9 9 9 9 9 9 9 9 9 10 11 11 11 11 11 12
8 7 6 5 4 3 3 3 2 2 2 3 3 3 4 4 5 5 5 6 6 6 7 7 7 8 8 8 9 9 8 8 9 8 8 9 10 10 11 11 11 11 12
6 5 4 3 3 2 2 2 2 2 2 3 3 4 4 4 4 5 5 5 6 6 6 7 7 7 8 8 8 8 8 8 8 8 8 8 10 10 10 10 11 11 11
Wind_Speed
7 7 5 8 8 9 11 8 7 5 4 4 5 4 4 2 3 4 6 3 3 2 0 4 4 5 5 5 6 6 7 7 7 7 8 9 11 11 10 10 10 10 9
9 8 2 6 7 9 7 7 7 7 6 5 4 3 3 1 1 2 5 5 4 2 3 3 3 5 5 6 6 6 6 7 7 7 9 8 8 8 9 9 9 9 7
12 6 3 5 7 9 7 5 6 7 5 8 5 4 3 3 4 4 5 6 4 2 1 2 4 5 6 5 6 6 8 6 6 6 6 6 6 7 6 6 4 3 4
19 17 15 11 10 8 6 7 2 5 4 5 5 6 5 4 3 3 3 4 4 4 3 3 4 4 4 6 7 6 5 6 7 7 7 8 10 10 9 8 6 5 5
13 11 13 15 17 17 17 17 14 9 5 3 5 3 3 4 4 3 4 5 5 6 6 6 4 4 5 7 6 7 7 5 7 7 7 9 10 10 8 9 7 5 5
11 8 11 13 15 16 16 15 14 16 17 15 12 9 8 8 8 6 5 4 5 6 8 7 5 4 5 5 6 7 8 7 7 7 7 8 8 9 8 9 8 7 7
12 12 13 14 15 15 15 14 13 12 13 14 15 14 11 9 9 8 8 7 4 4 5 5 4 3 5 5 6 8 8 8 8 7 7 8 8 9 9 9 8 7 6
12 12 12 12 12 12 12 12 10 9 9 9 9 10 11 9 8 10 10 8 4 3 3 3 3 5 6 7 7 7 8 7 6 9 9 9 9 8 8 8 9 8 6
8 7 7 7 8 8 8 8 8 8 9 9 9 7 7 7 7 7 8 9 9 8 6 3 4 6 6 7 7 7 8 6 7 8 9 9 9 8 8 8 9 8 7
9 8 7 6 7 7 6 6 6 6 7 7 8 9 9 9 9 9 7 6 8 9 10 9 7 7 7 7 8 8 7 6 7 7 8 8 8 7 7 8 9 9 8
11 10 10 10 10 10 8 6 6 6 6 6 6 7 7 7 8 9 10 8 6 6 8 9 9 9 9 9 8 9 8 7 6 7 8 8 8 5 5 5 7 8 7
13 13 13 12 11 11 11 10 8 8 7 7 7 8 8 8 8 9 9 10 10 8 6 8 8 10 11 11 10 10 9 7 6 6 7 8 7 6 5 5 6 7 7
15 15 14 12 11 10 10 11 11 11 10 9 8 9 10 10 9 9 10 10 10 11 9 7 8 9 10 12 12 10 9 8 6 5 6 6 6 5 4 4 6 6 5
17 16 14 13 13 12 12 13 13 13 13 12 11 12 13 13 12 10 10 11 11 12 11 9 8 9 11 12 13 12 10 8 6 5 5 5 3 4 4 3 5 5 1
19 16 13 11 10 10 9 9 10 10 10 10 11 13 13 13 13 12 11 11 12 14 12 11 9 7 9 11 12 12 12 9 7 5 2 2 6 8 6 4 4 3 3
17 11 9 9 9 9 10 10 10 10 9 9 10 11 12 13 14 14 13 12 12 12 11 10 9 8 8 11 15 14 11 7 6 3 3 7 7 9 11 11 10 8 7
21 20 17 12 10 10 10 10 9 10 10 10 11 11 12 13 13 14 13 13 12 12 11 9 9 8 7 9 12 14 10 8 6 4 5 6 8 8 8 8 9 10 10
24 21 20 17 16 14 14 10 13 11 11 11 12 12 13 14 13 12 12 12 11 10 10 10 9 8 8 7 9 10 8 8 6 5 6 8 9 7 8 7 8 8 6
21 19 21 23 17 16 15 14 14 12 13 14 13 14 15 15 15 15 13 12 11 10 9 9 10 9 6 2 6 6 4 7 7 6 7 9 9 11 9 8 10 9 8
21 20 22 21 17 13 13 15 17 16 16 15 14 15 15 16 17 16 13 13 11 10 10 10 9 9 5 5 6 7 3 5 5 4 6 11 12 12 9 8 8 9 9
20 19 18 18 14 13 13 15 16 17 15 13 14 15 14 16 18 16 13 12 13 13 11 10 9 8 7 9 11 11 6 2 3 3 4 8 16 14 11 9 8 11 10
22 22 17 16 12 11 13 16 17 16 13 14 17 17 15 17 18 14 13 11 11 11 11 10 10 9 8 11 12 14 11 8 2 3 4 6 17 16 12 8 13 16 12
22 20 19 17 13 12 14 19 18 17 17 18 20 18 18 15 15 16 15 12 10 10 10 10 11 10 8 10 14 15 14 11 5 1 6 7 15 15 9 12 17 14 7
22 21 21 21 19 18 18 17 18 18 20 21 19 17 16 16 14 12 11 11 10 9 8 9 10 6 6 8 8 9 8 8 6 1 3 11 13 11 12 12 11 7 5
22 22 23 23 23 21 20 20 18 17 18 17 16 15 14 14 13 11 10 10 8 6 3 3 5 3 4 7 12 10 7 6 7 6 5 8 8 9 9 8 7 6 4
22 22 21 22 22 21 20 19 17 15 15 15 14 11 10 10 10 9 9 11 11 9 8 7 6 4 6 8 13 13 11 12 12 10 9 10 10 10 10 9 7 5 5
Wind_Direction
149 100 114 117 116 112 122 153 180 162 164 156 167 179 167 170 154 148 126 155 242 288 62 284 334 322 299 323 327 311 300 292 281 278 277 261 254 248 237 235 237 229 216
109 91 94 112 121 112 118 130 131 157 186 129 104 95 67 296 159 108 154 189 226 250 285 340 338 313 327 306 280 279 279 287 293 295 297 291 278 258 249 237 227 228 224
37 62 48 63 110 125 142 151 144 166 185 144 162 148 162 233 222 207 198 192 194 214 292 338 312 313 305 301 326 307 287 288 292 286 286 297 295 308 305 321 302 239 227
38 14 19 25 46 60 67 66 83 191 176 176 218 188 190 217 222 197 200 151 179 213 204 229 261 276 291 298 288 292 321 308 295 286 278 277 285 291 292 290 280 255 237
60 25 24 31 37 41 44 40 12 354 343 279 289 299 253 249 245 208 188 172 212 213 206 205 213 249 267 272 289 307 295 288 288 292 298 300 298 288 279 281 279 276 249
80 52 34 35 35 37 41 45 30 22 14 6 356 343 321 316 315 312 290 226 221 204 199 189 188 230 262 288 301 294 290 281 279 281 282 283 286 288 285 279 272 269 266
67 51 39 35 33 33 36 39 34 25 19 16 15 12 359 337 316 303 283 252 243 235 184 160 151 244 277 282 276 276 277 276 277 282 284 283 282 287 293 294 286 270 266
62 51 39 32 26 24 24 25 22 18 15 16 11 18 19 12 3 351 337 325 313 309 71 127 190 233 252 266 271 279 279 285 300 296 288 284 281 275 275 278 285 285 277
52 47 35 28 19 14 14 5 356 351 354 359 355 358 1 355 351 351 357 354 348 336 333 276 228 241 250 257 268 273 275 285 287 286 286 285 283 276 269 266 261 260 271
16 15 9 4 355 347 346 338 326 328 333 348 351 343 340 338 334 330 337 348 350 345 331 314 288 266 260 257 257 268 270 280 282 283 281 283 283 277 270 262 258 250 242
343 340 339 339 336 330 325 322 314 311 314 321 322 314 314 321 321 316 316 318 315 325 323 308 290 277 267 261 258 262 269 272 286 296 297 303 306 308 297 281 263 253 237
323 319 317 318 320 320 318 314 307 300 294 292 289 286 287 285 284 288 296 305 305 299 300 308 297 282 275 266 261 262 269 275 283 291 297 306 317 321 316 313 288 265 237
308 304 300 297 296 294 292 291 291 289 284 274 268 273 274 274 272 275 279 283 291 298 301 304 309 302 287 277 269 261 259 261 268 282 294 303 314 320 333 327 311 288 249
305 297 287 277 268 263 263 265 269 268 267 262 258 259 263 267 268 264 265 271 274 277 285 292 299 306 304 287 274 266 255 253 256 262 270 287 320 347 340 350 332 313 235
296 285 278 274 272 272 271 274 272 273 272 269 260 257 258 262 265 262 256 258 262 266 263 264 269 287 305 297 292 277 260 246 245 248 245 80 83 67 42 47 22 15 88
319 324 311 302 307 316 316 311 303 297 290 287 286 281 271 264 261 258 254 253 255 257 254 253 257 261 280 309 313 296 270 253 244 223 149 141 132 102 79 67 55 57 92
335 325 318 314 309 303 293 285 289 294 296 297 300 299 294 288 279 270 255 249 250 253 250 250 258 259 258 274 284 278 271 255 236 190 172 179 143 136 117 97 78 65 79
320 317 314 312 306 302 300 295 297 290 291 294 296 296 297 297 297 291 275 257 253 254 251 252 258 268 278 279 258 255 261 261 235 186 163 139 150 151 145 131 100 77 74
313 311 308 305 302 298 295 291 289 288 288 289 291 293 289 287 290 290 291 287 271 259 256 255 248 253 257 260 239 220 255 265 243 197 160 145 145 152 150 128 115 103 91
310 304 302 299 295 293 293 288 287 285 282 283 289 293 289 284 281 278 281 287 284 272 257 248 243 245 226 162 186 182 200 270 272 225 166 152 143 151 149 138 133 127 127
305 303 300 298 296 293 292 288 292 291 286 287 295 294 288 284 280 274 268 270 273 271 264 258 252 241 199 164 165 171 176 166 344 302 194 154 148 151 155 155 146 143 141
309 308 305 302 299 299 303 303 304 306 302 299 296 293 286 281 278 274 267 260 262 267 267 258 252 244 199 173 170 171 167 151 157 317 295 176 161 156 156 154 150 154 153
314 313 313 310 310 313 316 310 309 309 303 296 291 287 282 275 273 272 269 265 258 257 258 254 246 237 204 179 182 183 173 154 149 249 297 214 171 152 148 152 156 165 179
321 323 322 319 317 319 317 309 304 300 294 288 285 282 277 272 267 264 263 263 258 250 246 250 258 241 181 176 186 195 186 152 125 106 224 185 171 152 141 153 163 185 201
329 331 326 321 318 316 309 302 297 292 287 285 281 276 271 267 264 259 256 258 250 223 203 273 292 263 201 200 194 190 184 163 141 141 173 179 168 149 149 161 180 198 170
332 329 323 319 314 309 304 299 293 286 284 283 278 273 269 266 259 255 260 247 233 210 202 226 245 240 225 199 186 183 170 154 150 161 187 179 168 156 157 167 180 178 154
Height
1464 1466 1467 1465 1472 1480 1484 1488 1493 1495 1497 1500 1501 1503 1505 1507 1509 1509 1507 1507 1508 1508 1507 1506 1506 1505 1505 1504 1503 1503 1501 1500 1500 1498 1496 1494 1494 1493 1493 1492 1492 1492 1493
1460 1464 1464 1463 1477 1483 1486 1489 1493 1496 1496 1497 1499 1500 1503 1505 1506 1506 1505 1505 1505 1505 1505 1504 1502 1502 1501 1500 1500 1499 1497 1496 1497 1495 1493 1490 1490 1488 1488 1487 1486 1487 1488
1472 1470 1470 1472 1482 1485 1486 1489 1494 1496 1496 1496 1497 1498 1501 1502 1503 1503 1502 1502 1502 1502 1502 1500 1499 1498 1497 1496 1495 1494 1493 1492 1492 1492 1491 1488 1484 1484 1484 1483 1482 1482 1482
1480 1474 1477 1483 1486 1486 1487 1489 1492 1495 1495 1495 1496 1496 1497 1499 1500 1500 1500 1500 1499 1499 1498 1497 1495 1494 1493 1492 1491 1491 1490 1488 1487 1487 1487 1486 1484 1482 1479 1479 1479 1478 1478
1484 1488 1489 1488 1486 1484 1485 1485 1489 1493 1495 1495 1495 1495 1495 1496 1497 1497 1496 1496 1496 1495 1494 1493 1491 1491 1490 1489 1488 1486 1485 1484 1482 1482 1481 1480 1479 1478 1477 1475 1474 1474 1474
1488 1494 1494 1490 1487 1485 1484 1484 1487 1489 1490 1490 1490 1491 1491 1492 1492 1493 1493 1492 1492 1491 1490 1489 1488 1487 1486 1485 1484 1483 1482 1480 1479 1478 1477 1476 1475 1474 1473 1471 1470 1469 1469
1493 1494 1493 1491 1489 1488 1487 1486 1487 1488 1488 1488 1487 1486 1486 1487 1489 1489 1489 1488 1488 1488 1487 1486 1485 1484 1483 1482 1480 1479 1479 1477 1475 1474 1472 1471 1470 1469 1468 1467 1466 1465 1465
1497 1497 1496 1495 1494 1492 1490 1489 1489 1489 1488 1487 1486 1484 1483 1482 1482 1483 1483 1483 1484 1484 1483 1481 1481 1480 1479 1478 1477 1476 1475 1473 1471 1468 1466 1464 1463 1463 1462 1462 1462 1461 1461
1498 1498 1497 1496 1495 1494 1492 1490 1490 1489 1487 1485 1484 1483 1482 1481 1480 1479 1478 1477 1477 1477 1478 1477 1477 1476 1475 1474 1473 1472 1470 1468 1465 1463 1461 1460 1458 1456 1455 1455 1456 1457 1456
1500 1499 1497 1496 1495 1494 1492 1491 1489 1486 1485 1483 1481 1480 1479 1477 1476 1476 1475 1473 1472 1471 1470 1471 1471 1471 1471 1471 1469 1468 1466 1463 1461 1459 1457 1456 1453 1451 1449 1448 1449 1450 1451
1501 1500 1498 1496 1495 1493 1491 1489 1487 1484 1482 1479 1477 1476 1474 1472 1471 1470 1469 1468 1467 1466 1465 1464 1464 1465 1465 1466 1465 1464 1462 1459 1456 1455 1454 1453 1450 1447 1445 1443 1442 1442 1444
1501 1499 1496 1494 1491 1490 1488 1486 1484 1482 1479 1476 1473 1471 1468 1466 1465 1463 1462 1460 1459 1459 1459 1458 1457 1457 1458 1459 1460 1459 1457 1455 1452 1451 1450 1449 1448 1445 1442 1440 1438 1436 1437
1498 1495 1492 1489 1486 1484 1482 1481 1479 1477 1474 1472 1469 1466 1463 1461 1458 1456 1454 1452 1450 1449 1449 1450 1450 1449 1450 1451 1453 1453 1452 1450 1448 1447 1447 1446 1445 1442 1439 1436 1433 1431 1431
1493 1489 1486 1483 1481 1479 1476 1474 1472 1470 1467 1465 1462 1460 1458 1455 1453 1450 1448 1446 1443 1441 1440 1440 1441 1441 1441 1443 1445 1446 1446 1445 1443 1443 1443 1443 1442 1440 1437 1434 1430 1428 1428
1485 1482 1479 1478 1476 1474 1471 1469 1467 1465 1462 1459 1456 1453 1451 1449 1446 1443 1441 1439 1437 1436 1433 1432 1434 1435 1434 1435 1437 1439 1440 1440 1439 1438 1439 1439 1439 1438 1436 1433 1430 1428 1427
1478 1476 1475 1473 1471 1468 1466 1464 1461 1459 1456 1453 1450 1448 1445 1442 1439 1437 1435 1433 1432 1431 1429 1428 1428 1429 1428 1428 1429 1431 1433 1434 1435 1434 1435 1436 1437 1436 1435 1433 1431 1430 1429
1477 1475 1471 1468 1465 1462 1459 1456 1453 1450 1448 1445 1442 1440 1438 1435 1432 1430 1427 1426 1425 1425 1424 1424 1424 1424 1423 1423 1422 1423 1426 1429 1430 1430 1431 1433 1434 1435 1434 1434 1433 1434 1435
1474 1470 1466 1462 1458 1454 1451 1448 1445 1442 1439 1436 1434 1432 1430 1427 1424 1422 1420 1418 1418 1417 1417 1417 1418 1418 1418 1417 1417 1417 1418 1422 1425 1426 1427 1429 1432 1433 1434 1435 1435 1436 1438
1469 1464 1460 1455 1450 1446 1443 1439 1435 1433 1430 1427 1425 1423 1421 1418 1415 1413 1411 1410 1410 1410 1410 1410 1411 1412 1412 1411 1412 1411 1412 1416 1421 1423 1424 1426 1429 1432 1434 1435 1436 1438 1441
1463 1457 1451 1446 1441 1437 1433 1429 1426 1423 1420 1417 1415 1412 1410 1408 1405 1403 1401 1401 1402 1402 1403 1403 1405 1406 1406 1406 1407 1407 1408 1412 1416 1419 1421 1423 1426 1430 1433 1435 1436 1439 1442
1454 1448 1442 1437 1432 1428 1423 1418 1415 1412 1409 1406 1403 1401 1399 1397 1395 1392 1391 1392 1393 1394 1395 1396 1398 1400 1400 1400 1401 1403 1405 1407 1411 1414 1417 1420 1423 1428 1432 1434 1437 1439 1442
1444 1439 1433 1427 1423 1418 1413 1408 1405 1402 1399 1395 1392 1389 1387 1386 1385 1383 1382 1383 1384 1385 1387 1389 1391 1393 1395 1395 1396 1398 1400 1403 1406 1408 1412 1416 1421 1425 1430 1433 1436 1439 1443
1436 1431 1425 1418 1413 1409 1404 1398 1394 1391 1386 1383 1380 1377 1375 1374 1374 1374 1373 1374 1375 1377 1379 1381 1384 1386 1388 1388 1390 1392 1394 1397 1400 1403 1405 1410 1417 1422 1427 1431 1435 1438 1442
1430 1423 1416 1409 1403 1398 1392 1387 1381 1377 1373 1369 1366 1364 1364 1363 1364 1364 1365 1366 1367 1369 1371 1374 1377 1379 1381 1382 1384 1386 1389 1391 1394 1398 1401 1407 1414 1419 1424 1429 1434 1438 1441
1424 1417 1409 1400 1392 1386 1379 1374 1369 1364 1360 1357 1355 1354 1353 1353 1354 1355 1356 1358 1360 1362 1364 1367 1371 1373 1375 1378 1380 1381 1384 1386 1390 1395 1399 1405 1411 1416 1421 1427 1432 1436 1440
1417 1408 1399 1391 1383 1375 1369 1363 1359 1355 1352 1349 1347 1346 1345 1345 1346 1347 1349 1350 1353 1356 1359 1362 1366 1368 1371 1374 1376 1378 1381 1384 1387 1392 1399 1404 1408 1413 1419 1425 1431 1435 1438